Regional Weather Roundup
Issued by NWS Grand Forks, ND

Home | Current Version | Previous Version | Graphics & Text | Print | Product List | Glossary On
Versions: 1 2 3 4 5 6 7 8 9 10 11 12 13 14 15 16 17 18 19 20 21 22 23 24 25 26 27 28 29 30 31 32 33 34 35 36 37 38 39 40 41 42 43 44 45 46 47 48 49 50
000
ASUS43 KFGF 180410
RWRFGF
PRAIRIE TO PINES  WEATHER ROUNDUP
NATIONAL WEATHER SERVICE EASTERN NORTH DAKOTA/GRAND FORKS ND
1000 PM CST TUE JAN 17 2017

 **SATELLITE DATA USED TO AUGMENT SKY COVER AT AUTOMATED STATIONS**
 *****  WEATHER ACROSS EASTERN NORTH DAKOTA  *****

CITY           SKY/WX    TMP DP  RH WIND       PRES   REMARKS
GRAND FORKS    FAIR      21  15  78 S15       29.72F WCI   8
GRAND FRKS AFB FAIR      26  17  69 SW15      29.70F WCI  14
DEVILS LAKE    FAIR      25  20  81 CALM      29.67S
FARGO          FAIR      22  17  81 S14       29.82R WCI   9
WAHPETON ARPT  FAIR      18  14  86 SE9       29.85R WCI   6
$$

 ***** WEATHER ACROSS CENTRAL AND WESTERN NORTH DAKOTA  *****

CITY           SKY/WX    TMP DP  RH WIND       PRES   REMARKS
BISMARCK       FAIR      30  19  63 SW6       29.76S WCI  24
MINOT          FAIR      39  27  62 W24G30    29.64F
JAMESTOWN      FAIR      27  18  69 SW14      29.73F WCI  16
MINOT AFB      NOT AVBL
GARRISON         N/A     27  20  75 W7        29.70S WCI  19
WILLISTON      FAIR      28  21  75 SE6       29.72S WCI  22
DICKINSON      FAIR      31  21  66 W15       29.74S WCI  20
HETTINGER      FAIR      28  18  66 W8        29.82S WCI  20
$$

 *****  OTHER AIRPORT OBSERVATIONS IN OUR AREA  *****

CITY           SKY/WX    TMP DP  RH WIND       PRES   REMARKS
WALHALLA       NOT AVBL
GRAFTON AIRPOR FAIR      23  18  80 S13       29.68F WCI  11
VALLEY CITY AR FLURRIES  19  18  93 SW21      29.76F WCI   3
CANDO          NOT AVBL
CAVALIER APRT    N/A     30  21  69 SW16      29.60F WCI  19
GWINNER        FAIR      27  21  80 SW21      29.79F WCI  13
SHEYENNE NWR     N/A     25  18  75 SW14      29.95S WCI  13
ROLLA          NOT AVBL
 ***** THE ABOVE OBSERVATIONS ARE NON NWS ARE NOT QUALITY
       CONTROLLED AND MAY MIS-REPORT RAIN FOR SNOW...
$$

  *****  WEATHER ACROSS NORTHERN MINNESOTA  *****

CITY           SKY/WX    TMP DP  RH WIND       PRES   REMARKS
FLAG ISLAND    FAIR      19  16  86 S14       29.62F WCI   6
WARROAD        FAIR      27  19  74 SW18G29   29.64F WCI  13
ROSEAU         FAIR      27  19  74 S16G22    29.64F WCI  14
HALLOCK        FAIR      19  18  93 S23       29.63F WCI   2
THF RVR FALLS  FAIR      23  18  81 SW21      29.73F WCI   8
BAUDETTE       FAIR      28  19  69 S16       29.66F WCI  16
WASKISH        FAIR      28  21  74 S7        29.73F WCI  21
CROOKSTON      FAIR      21  18  86 S21       29.76F WCI   6
GREENBUSH NDAW   N/A     21  18  86 S21         N/A  WCI   6
$$
  *****  WEATHER ACROSS CENTRAL AND WEST MINNESOTA  *****

CITY           SKY/WX    TMP DP  RH WIND       PRES   REMARKS
FOSSTON        FAIR      23  19  86 S20       29.77S WCI   8
BEMIDJI        FAIR      25  19  79 S6        29.78S WCI  18
PARK RAPIDS    FAIR      17  11  77 S6        29.81F WCI   9
ELBOW LAKE     FAIR      17  15  91 S13       29.87F WCI   4
WADENA         FAIR      18  14  86 S9        29.84F WCI   6
DETROIT LAKES  FAIR      19  18  93 S7        29.83R WCI  10
MOORHEAD       FAIR      18  14  86 S14       29.83R WCI   4
FERGUS FALLS   FAIR      18  14  86 S12       29.90F WCI   5
MORRIS MN      FAIR      16  12  86 SE9       29.88F WCI   4
STAPLES        FAIR      16  12  86 S9        29.86F WCI   4
$$
  *****  WEATHER ELSEWHERE ACROSS MINNESOTA  *****

CITY           SKY/WX    TMP DP  RH WIND       PRES   REMARKS
DULUTH         FAIR      27  19  72 SW10      29.84F WCI  17
INTRNTL FALLS  FAIR      27  18  69 S6        29.71F WCI  20
ELY            FAIR      27  16  63 SW8       29.79F WCI  18
CLOQUET        FAIR      27  21  80 SW9       29.86F WCI  17
WHEATON        FAIR      27  23  86 S12       29.87F WCI  16
BRAINERD       FAIR      21  15  78 S10       29.87F WCI  10
HIBBING        FAIR      22  12  65 S5        29.81F WCI  16
ALEXANDRIA     FAIR      19  16  88 S12       29.88F WCI   7
SAINT CLOUD    FAIR      18  17  96 S5        29.95S FOG     WCI  11
MINNEAPOLIS    CLOUDY    30  26  85 SW9       30.00S WCI  22
$$

  *****  WEATHER ACROSS SOUTH DAKOTA  *****

CITY           SKY/WX    TMP DP  RH WIND       PRES   REMARKS
SIOUX FALLS    FAIR      27  26  96 S7        29.97F WCI  19
BROOKINGS      FAIR      22  20  92 S9        29.93F WCI  12
WATERTOWN      FAIR      20  18  92 S10       29.88F WCI   9
HURON          FAIR      25  24  96 S10       29.89F WCI  15
SISSETON         N/A     35  24  64 S14G22    29.82F
ABERDEEN       FAIR      16  11  80 S8        29.87F WCI   5
MITCHELL       FAIR      28  27  96 S10       29.93F WCI  19
PIERRE         FAIR      22  16  78 SW5       29.87F WCI  16
MOBRIDGE       FAIR      18  10  71 SE10      29.80F WCI   6
RAPID CITY     FAIR      29  10  45 NW3       29.88F
$$

  *****  SOME WEATHER IN NEARBY STATES *****

CITY           SKY/WX    TMP DP  RH WIND       PRES   REMARKS
GLASGOW MT     FAIR      29  22  75 SE10      29.69R WCI  20
GREAT FALLS MT FAIR      37  23  56 S23       29.73F
CHEYENNE WY    FAIR      25  12  58 W9        30.00S WCI  15
SCOTTSBLUFF NE FAIR      30  14  51 NW7       29.98S WCI  23
OMAHA NE       FAIR      26  22  84 SE7       30.08F FOG     WCI  18
DES MOINES IA  CLOUDY    32  31  96 W10       30.10S FOG     WCI  24
DAVENPORT IA   CLOUDY    33  32  96 W12       30.07R FOG     WCI  24
CHICAGO IL     DRIZZLE   35  33  92 W12       29.99R
EAU CLAIRE WI  FOG       30  30 100 SW10      29.98S VSB 1/4 WCI  21
LA CROSSE WI   CLOUDY    36  32  85 W6        30.02R FOG
$$

  *****  SOME NATIONAL WEATHER *****

CITY           SKY/WX    TMP DP  RH WIND       PRES   REMARKS
LA GUARDIA NY  CLOUDY    39  37  92 NE14      29.98F FOG
RALEIGH NC     MOCLDY    60  57  89 SW12      30.03F
ATLANTA GA     MOCLDY    63  57  81 SW9       30.15S
NEW ORLEANS LA MOCLDY    68  67  96 SE7       30.15S
OKLAHOMA CITY  CLOUDY    47  36  65 SE8       30.15F
ALBUQUERQUE NM MOCLDY    40  34  79 SE7       30.12R
SALT LAKE CITY FAIR      23  19  85 CALM      30.25R FOG
LOS ANGELES CA FAIR      56  52  86 W6        30.12F
BOISE ID       FAIR       6   2  83 W3        30.18F FOG
SEATTLE WA     RAIN      45  45 100 CALM      29.52F FOG
$$

*** WEATHER ACROSS MANITOBA...SASKATCHEWAN AND ONTARIO ***
                ***ONTARIO***

CITY           SKY/WX    TMP DP  RH WIND       PRES   REMARKS
GERALDTON      MOCLDY    25  23  93 S9        29.72F WCI  15
THUNDER BAY    PTCLDY    18  18 100 VRB2      29.82F FOG
SIOUX LOOKOUT  PTCLDY    25  19  80 S8        29.63F WCI  16
TORONTO        LGT RAIN  34  32  93 N6        29.80S
BIG TROUT LK   CLEAR     32  25  74 W14G22    29.29F WCI  22
PICKLE LAKE    NOT AVBL
DRYDEN         CLEAR     25  21  86 S13G20    29.62F WCI  13
KENORA         CLEAR     25  19  80 S16G24    29.58F WCI  12
$$
                *** MANITOBA***

CITY           SKY/WX    TMP DP  RH WIND       PRES   REMARKS
BRANDON        PTCLDY    25  21  86 W13       29.54S WCI  13
DAUPHIN        CLEAR     34  27  75 W15G22    29.49R WCI  24
ISLAND LAKE    PTCLDY    30  23  74 W13       29.37R WCI  20
PILOT MOUND      N/A     21  18  86 SW9         N/A  WCI  11
THE PAS        CLOUDY    34  27  75 W10       29.40S
THOMPSON       CLOUDY    30  27  86 W9        29.29R WCI  22
WINNIPEG       CLEAR     21  16  79 S12       29.57S WCI   9
LYNN LAKE      CLEAR     32  30  93 W7        29.28R
CHURCHILL      LGT SNOW  21  19  93 N22G32    29.12R DRFTSNOWWCI   5
GILLAM         CLOUDY    36  32  87 W17G24    29.18R
$$
                ***SASKATCHEWAN***

CITY           SKY/WX    TMP DP  RH WIND       PRES   REMARKS
ESTEVAN        MOCLDY    28  23  80 SW12      29.63R WCI  18
KINDERSLEY     CLEAR     34  28  80 S13       29.42F WCI  25
LLOYDMINSTER   PTCLDY    28  27  93 S6        29.33S WCI  22
PRINCE ALBERT  CLOUDY    32  28  86 S2        29.42S
REGINA         CLEAR     32  28  86 SW16      29.54S WCI  21
YORKTON        CLEAR     30  28  93 SW12      29.50R WCI  21
N. BATTLEFORD  CLEAR     28  28 100 S2        29.41R
LA RONGE       CLOUDY    34  28  80 SW2       29.36R
SASKATOON      CLEAR     34  28  80 SW10      29.44F
SWIFT CURRENT  CLEAR     43  32  65 SW16G31   29.53S
$$
NOTE: THESE ARE AUTOMATED STATIONS WITH LIMITED QUALITY CONTROL
      "FAIR" INDICATES FEW OR NO CLOUDS BELOW 12,000 FEET WITH NO
      SIGNIFICANT WEATHER AND/OR OBSTRUCTIONS TO VISIBILITY.
      SKY/WX - SKY CONDITION AND SIGNIFICANT WEATHER.
      TMP - AIR TEMPERATURE.    DP   - DEWPOINT TEMPERATURE.
      RH  - RELATIVE HUMIDITY.  PRES - PRESSURE.
      HX  - HEAT INDEX.         WCI  - WIND CHILL INDEX.
$




USA.gov is the U.S. government's official web portal to all federal, state and local government web resources and services.